TimeAKST,TemperatureF,Dew PointF,Humidity,Sea Level PressureIn,VisibilityMPH,Wind Direction,Wind SpeedMPH,Gust SpeedMPH,PrecipitationIn,Events,Conditions,WindDirDegrees,DateUTC
12:16 AM,-13.0,-20.2,70,29.97,10.0,Calm,Calm,-,N/A,,Clear,0,2013-01-26 09:16:00
12:36 AM,-14.8,-22.0,70,29.98,10.0,Calm,Calm,-,N/A,,Clear,0,2013-01-26 09:36:00
12:56 AM,-14.8,-20.2,77,29.98,10.0,Calm,Calm,-,N/A,,Clear,0,2013-01-26 09:56:00
1:16 AM,-13.0,-18.4,77,29.98,10.0,North,4.6,-,N/A,,Clear,10,2013-01-26 10:16:00
1:36 AM,-14.8,-20.2,77,29.98,10.0,Calm,Calm,-,N/A,,Clear,0,2013-01-26 10:36:00
1:56 AM,-16.6,-25.6,64,29.98,10.0,Calm,Calm,-,N/A,,Clear,0,2013-01-26 10:56:00
2:16 AM,-16.6,-22.0,76,29.98,10.0,Calm,Calm,-,N/A,,Clear,0,2013-01-26 11:16:00
2:36 AM,-16.6,-16.6,100,29.98,10.0,Calm,Calm,-,N/A,,Clear,0,2013-01-26 11:36:00
2:56 AM,-18.4,-9999,N/A,29.98,10.0,Calm,Calm,-,N/A,,Clear,0,2013-01-26 11:56:00
3:16 AM,-18.4,-25.6,70,29.98,10.0,Calm,Calm,-,N/A,,Clear,0,2013-01-26 12:16:00
3:36 AM,-16.6,-16.6,100,29.98,10.0,Calm,Calm,-,N/A,,Clear,0,2013-01-26 12:36:00
3:56 AM,-16.6,-23.8,70,29.98,10.0,Calm,Calm,-,N/A,,Clear,0,2013-01-26 12:56:00
4:16 AM,-16.6,-23.8,70,29.98,10.0,NNE,6.9,56.4,N/A,,Clear,20,2013-01-26 13:16:00
4:36 AM,-16.6,-20.2,84,29.97,10.0,Calm,Calm,-,N/A,,Clear,0,2013-01-26 13:36:00
4:56 AM,-18.4,-25.6,70,29.98,10.0,Calm,Calm,-,N/A,,Clear,0,2013-01-26 13:56:00
5:16 AM,-18.4,-27.4,63,29.98,10.0,Calm,Calm,-,N/A,,Clear,0,2013-01-26 14:16:00
5:36 AM,-20.2,-9999,N/A,29.97,10.0,NNE,3.5,-,N/A,,Clear,30,2013-01-26 14:36:00
5:56 AM,-25.6,-27.4,91,29.97,10.0,Calm,Calm,-,N/A,,Clear,0,2013-01-26 14:56:00
6:16 AM,-23.8,-25.6,91,29.97,10.0,Calm,Calm,-,N/A,,Clear,0,2013-01-26 15:16:00
6:36 AM,-31.0,-9999,N/A,29.97,10.0,Calm,Calm,-,N/A,,Clear,0,2013-01-26 15:36:00
6:56 AM,-29.2,-9999,N/A,29.97,10.0,Calm,Calm,-,N/A,,Clear,0,2013-01-26 15:56:00
7:16 AM,-27.4,-9999,N/A,29.96,10.0,Calm,Calm,-,N/A,,Clear,0,2013-01-26 16:16:00
7:36 AM,-27.4,-27.4,100,29.96,10.0,Calm,Calm,-,N/A,,Clear,0,2013-01-26 16:36:00
7:56 AM,-29.2,-9999,N/A,29.96,10.0,Calm,Calm,-,N/A,,Clear,0,2013-01-26 16:56:00
8:16 AM,-38.2,-9999,N/A,29.96,5.0,Calm,Calm,-,N/A,,Clear,0,2013-01-26 17:16:00
8:36 AM,-32.8,-9999,N/A,29.96,10.0,Calm,Calm,-,N/A,,Clear,0,2013-01-26 17:36:00
8:56 AM,-32.8,-9999,N/A,29.96,10.0,Calm,Calm,-,N/A,,Clear,0,2013-01-26 17:56:00
9:16 AM,-34.6,-9999,N/A,29.97,10.0,Calm,Calm,-,N/A,,Clear,0,2013-01-26 18:16:00
9:36 AM,-36.4,-9999,N/A,29.97,10.0,Calm,Calm,-,N/A,,Clear,0,2013-01-26 18:36:00
9:56 AM,-34.6,-9999,N/A,29.98,10.0,Calm,Calm,-,N/A,,Clear,0,2013-01-26 18:56:00
10:16 AM,-34.6,-9999,N/A,29.98,10.0,Calm,Calm,-,N/A,,Clear,0,2013-01-26 19:16:00
10:36 AM,-34.6,-9999,N/A,29.98,10.0,Calm,Calm,-,N/A,,Clear,0,2013-01-26 19:36:00
10:56 AM,-36.4,-9999,N/A,29.98,7.0,Calm,Calm,-,N/A,,Clear,0,2013-01-26 19:56:00
11:16 AM,-34.6,-9999,N/A,29.98,10.0,Calm,Calm,-,N/A,,Clear,0,2013-01-26 20:16:00
11:36 AM,-34.6,-9999,N/A,29.98,2.5,Calm,Calm,-,N/A,,Clear,0,2013-01-26 20:36:00
11:56 AM,-32.8,-9999,N/A,29.98,3.0,Calm,Calm,-,N/A,,Clear,0,2013-01-26 20:56:00
12:16 PM,-34.6,-9999,N/A,29.98,4.0,Calm,Calm,-,N/A,,Clear,0,2013-01-26 21:16:00
12:36 PM,-34.6,-9999,N/A,29.99,10.0,Calm,Calm,-,N/A,,Clear,0,2013-01-26 21:36:00
12:56 PM,-34.6,-9999,N/A,29.99,10.0,Calm,Calm,-,N/A,,Scattered Clouds,0,2013-01-26 21:56:00
1:16 PM,-34.6,-9999,N/A,29.99,10.0,Calm,Calm,-,N/A,,Scattered Clouds,0,2013-01-26 22:16:00
1:36 PM,-32.8,-9999,N/A,29.99,10.0,Calm,Calm,-,N/A,,Mostly Cloudy,0,2013-01-26 22:36:00
1:56 PM,-31.0,-9999,N/A,30.00,10.0,Calm,Calm,-,N/A,,Overcast,0,2013-01-26 22:56:00
2:16 PM,-27.4,-9999,N/A,30.00,10.0,Calm,Calm,-,N/A,,Overcast,0,2013-01-26 23:16:00
2:36 PM,-27.4,-9999,N/A,30.00,10.0,Calm,Calm,-,N/A,,Overcast,0,2013-01-26 23:36:00
2:56 PM,-25.6,-9999,N/A,30.00,10.0,Calm,Calm,-,N/A,,Overcast,0,2013-01-26 23:56:00
3:16 PM,-25.6,-9999,N/A,30.00,10.0,Calm,Calm,-,N/A,,Overcast,0,2013-01-27 00:16:00
3:36 PM,-27.4,-9999,N/A,30.01,10.0,Calm,Calm,-,N/A,,Overcast,0,2013-01-27 00:36:00
3:56 PM,-27.4,-9999,N/A,30.01,10.0,Calm,Calm,-,N/A,,Overcast,0,2013-01-27 00:56:00
4:16 PM,-25.6,-9999,N/A,30.02,8.0,Calm,Calm,-,N/A,,Overcast,0,2013-01-27 01:16:00
4:36 PM,-25.6,-9999,N/A,30.02,10.0,Calm,Calm,-,N/A,,Overcast,0,2013-01-27 01:36:00
4:56 PM,-25.6,-9999,N/A,30.03,10.0,Calm,Calm,-,N/A,,Overcast,0,2013-01-27 01:56:00
5:16 PM,-25.6,-9999,N/A,30.03,10.0,Calm,Calm,-,N/A,,Overcast,0,2013-01-27 02:16:00
5:36 PM,-27.4,-9999,N/A,30.03,5.0,Calm,Calm,-,N/A,,Overcast,0,2013-01-27 02:36:00
5:56 PM,-27.4,-9999,N/A,30.03,4.0,Calm,Calm,-,N/A,,Overcast,0,2013-01-27 02:56:00
6:16 PM,-27.4,-9999,N/A,30.04,5.0,Calm,Calm,-,N/A,,Overcast,0,2013-01-27 03:16:00
6:36 PM,-27.4,-9999,N/A,30.05,5.0,Calm,Calm,-,N/A,,Overcast,0,2013-01-27 03:36:00
6:56 PM,-25.6,-9999,N/A,30.05,8.0,Calm,Calm,-,N/A,,Overcast,0,2013-01-27 03:56:00
7:16 PM,-25.6,-9999,N/A,30.05,4.0,Calm,Calm,-,N/A,,Overcast,0,2013-01-27 04:16:00
7:36 PM,-25.6,-9999,N/A,30.06,10.0,Calm,Calm,-,N/A,,Mostly Cloudy,0,2013-01-27 04:36:00
7:56 PM,-25.6,-9999,N/A,30.07,10.0,Calm,Calm,-,N/A,,Partly Cloudy,0,2013-01-27 04:56:00
8:16 PM,-25.6,-9999,N/A,30.07,10.0,Calm,Calm,-,N/A,,Clear,0,2013-01-27 05:16:00
8:36 PM,-27.4,-9999,N/A,30.08,10.0,Calm,Calm,-,N/A,,Mostly Cloudy,0,2013-01-27 05:36:00
8:56 PM,-29.2,-9999,N/A,30.08,10.0,Calm,Calm,-,N/A,,Overcast,0,2013-01-27 05:56:00
9:16 PM,-29.2,-9999,N/A,30.09,9.0,Calm,Calm,-,N/A,,Overcast,0,2013-01-27 06:16:00
9:36 PM,-27.4,-9999,N/A,30.10,4.0,Calm,Calm,-,N/A,,Overcast,0,2013-01-27 06:36:00
9:56 PM,-27.4,-9999,N/A,30.10,3.0,Calm,Calm,-,N/A,,Overcast,0,2013-01-27 06:56:00
10:16 PM,-31.0,-9999,N/A,30.11,7.0,Calm,Calm,-,N/A,,Overcast,0,2013-01-27 07:16:00
10:36 PM,-31.0,-9999,N/A,30.12,5.0,Calm,Calm,-,N/A,,Overcast,0,2013-01-27 07:36:00
10:56 PM,-31.0,-9999,N/A,30.12,10.0,Calm,Calm,-,N/A,,Scattered Clouds,0,2013-01-27 07:56:00
11:16 PM,-32.8,-9999,N/A,30.13,10.0,Calm,Calm,-,N/A,,Clear,0,2013-01-27 08:16:00
11:36 PM,-32.8,-9999,N/A,30.14,10.0,Calm,Calm,-,N/A,,Clear,0,2013-01-27 08:36:00
11:56 PM,-32.8,-9999,N/A,30.14,10.0,Calm,Calm,-,N/A,,Clear,0,2013-01-27 08:56:00